FENGYUN 1C DEB, 35244

Orbit data source: Space-Track

FENGYUN 1C DEB, 35244 is space debris in SSO originally from a launch on Mon, 10 May 1999 UTC launched from the Taiyaun Space Center, China (TSC). Fengyun 1C debris stems from the Chinese weather satellite Fengyun-1C, which was intentionally destroyed by a Chinese anti-satellite missile in 2007. This event dramatically increased the amount of space debris, with thousands of trackable fragments posing hazards to satellites and human spaceflight. The Fengyun 1C debris cloud has become a focal point in discussions about space sustainability and the need for international regulations to prevent the creation of new debris.

Loading next visibility...
Identifier
35244, 1999-025DRC
Orbit
SSO
Country
Flag of CNCN / PRC
Related business
Manufacturer
Unknown
Mission
Spacecraft
Bus & Motor
Unknown
Mass
Unknown
Launch date (UTC)
1999-05-10 (27 years ago)
Launch vehicle
Unknown
Launch site
Taiyaun Space Center, China (TSC)
Object type
Payload
Rocket body
Debris
Shape & HBR
Unknown shape, 0.1 m
Radar Cross Section
Small (<0.1 m²)

Expand to show TLE details & history
Last TLE update: 2 days ago

TLE from 2 days ago
0 FENGYUN 1C DEB
1 35244U 99025DRC 26264.05282802  .00000508  00000-0  32178-3 0  9997
2 35244  98.8113 302.4723 0071861  84.9568 275.9799 14.07087665697918
Epoch: 2026-09-21T01:16Z
TLE epoch observation values (Epoch: 2026-09-21T01:16:04.340Z)
Latitude
-0.00003°
Longitude
-76.48397°
Altitude
867.193 km
Speed
7.421 km/s
True Right ascension
20h 09m 53s
True Declination
0° 00' 00"
Sunlit
Object was in full shadow at epoch
Visualization orbit readout
Latitude
Unknown
Longitude
Unknown
Altitude
Unknown
Speed
Unknown
Apparent Right ascension
Unknown
Apparent Declination
Unknown
Sunlit
N/A
Visualization observer readout
Local Sidereal Time
15:50:17
Azimuth
Unknown
Elevation
Unknown
Doppler factor
Unknown
Orbital elements
Apogee altitude
918.596 km
Perigee altitude
814.474 km
Semi-major axis
7,244.672 km
Eccentricity
0.00719
Inclination
98.8113°
RAAN
302.4723°
Arg. of periapsis
84.9568°
True anomaly
275.16018°
Mean anomaly
275.9799°
Eccentric anomaly
275.57011°
Mean motion
3.51978 °/min
Orbital period
102.28 mins
BSTAR
0.00032178
Loading maneuver chart data...
Computing Atmospheric mass density...

Documentation

Showing up to 5 results
|